PEGASUS DEB, 39315

Orbit data source: Space-Track

PEGASUS DEB, 39315 is space debris in LEO originally from a launch on Thu, 19 May 1994 UTC launched from the Air Force Western Test Range (AFWTR). Debris objects in space refer to the collection of defunct objects orbiting the Earth. Examples of debris include non-operational satellites, rocket bodies, and fragments generated from explosions, collisions, or faulty payload assembly.

Loading next visibility...
Identifier
39315, 1994-029AFA
Orbit
LEO
Country
Flag of USUS
Related business
Manufacturer
Unknown
Mission
Spacecraft
Bus & Motor
Unknown
Mass
Unknown
Launch date (UTC)
1994-05-19 (32 years ago)
Launch vehicle
Unknown
Launch site
Air Force Western Test Range (AFWTR)
Object type
Payload
Rocket body
Debris
Shape & HBR
Unknown shape, 0.1 m
Radar Cross Section
Small (<0.1 m²)

Expand to show TLE details & history
Last TLE update: 3 days ago

TLE from 3 days ago
0 PEGASUS DEB
1 39315U 94029AFA 26059.64971015  .00007049  00000-0  21121-2 0  9999
2 39315  81.4909  27.9089 0389577 332.2948  25.7932 14.06781010647169
Epoch: 2026-02-28T15:35Z
TLE epoch observation values (Epoch: 2026-02-28T15:35:34.956Z)
Latitude
-0.00002°
Longitude
-4.45554°
Altitude
621.216 km
Speed
7.678 km/s
True Right ascension
01h 51m 38s
True Declination
0° 00' 00"
Sunlit
Object was in daylight at epoch
Visualization orbit readout
Latitude
Unknown
Longitude
Unknown
Altitude
Unknown
Speed
Unknown
Apparent Right ascension
Unknown
Apparent Declination
Unknown
Sunlit
N/A
Visualization observer readout
Local Sidereal Time
02:00:02
Azimuth
Unknown
Elevation
Unknown
Doppler factor
Unknown
Orbital elements
Apogee altitude
1,149.844 km
Perigee altitude
585.292 km
Semi-major axis
7,245.705 km
Eccentricity
0.03896
Inclination
81.4909°
RAAN
27.9089°
Arg. of periapsis
332.2948°
True anomaly
27.82417°
Mean anomaly
25.7932°
Eccentric anomaly
26.79959°
Mean motion
3.51902 °/min
Orbital period
102.3 mins
BSTAR
0.0021121
Loading maneuver chart data...
Computing Atmospheric mass density...
Loading historical data...
Loading historical data...
Loading historical data...
Loading historical data...
Loading historical data...
Loading historical data...
Loading historical data...

Documentation

Showing up to 5 results
|